Regional Weather Roundup
Issued by NWS

Home | Current Version | Previous Version | Text Only | Print | Product List | Glossary On
Versions: 1 2 3 4 5 6 7 8 9 10 11 12 13 14 15 16 17 18 19 20 21 22 23 24 25 26 27 28 29 30 31 32 33 34 35 36 37 38 39 40 41 42 43 44 45 46 47 48 49 50
000
ASUS45 KBOI 010710
RWRID
WEATHER ROUNDUP FOR IDAHO
NATIONAL WEATHER SERVICE BOISE ID
1200 AM MST SUN FEB 01 2015

NOTE: "FAIR" INDICATES FEW OR NO CLOUDS BELOW 12000 FEET
WITH NO SIGNIFICANT WEATHER AND/OR OBSTRUCTIONS TO VISIBILITY

IDZ012-014-010800-
SOUTHWEST IDAHO


CITY           SKY/WX    TMP DP  RH WIND       PRES   REMARKS
BOISE          PTCLDY    34  26  72 CALM      30.19R
CALDWELL       PTCLDY    30  25  80 CALM      30.21R
MOUNTAIN HOME  PTCLDY    29  27  91 E7        30.20R WCI  22
$$

IDZ016-017-010800-
SOUTHCENTRAL IDAHO


CITY           SKY/WX    TMP DP  RH WIND       PRES   REMARKS
BURLEY         CLEAR     25  22  88 SE3       30.18R
JEROME         MOCLDY    30  26  85 NE12      30.19R WCI  20
TWIN FALLS     MOCLDY    36  28  73 S13       30.18R WCI  27
$$

IDZ019>023-010800-
SOUTHEAST IDAHO


CITY           SKY/WX    TMP DP  RH WIND       PRES   REMARKS
IDAHO FALLS    CLOUDY    30  27  88 W5        30.18S WCI  25
POCATELLO      CLOUDY    32  31  96 W6        30.20R WCI  26
REXBURG        CLOUDY    29  25  85 VRB5      30.17R WCI  24
$$

IDZ006-010-011-018-031-032-010800-
CENTRAL IDAHO MOUNTAINS


CITY           SKY/WX    TMP DP  RH WIND       PRES   REMARKS
MCCALL         MOCLDY    27  16  63 CALM      30.17R
HAILEY         PTCLDY    21  19  93 NW6       30.16S WCI  14
STANLEY          N/A      8   1  73 CALM      30.18S
SALMON         CLOUDY    21  19  93 CALM      30.24R
CHALLIS        CLEAR     20  17  88 CALM      30.19R
$$

IDZ002-004-006-007-026-010800-
NORTHERN IDAHO


CITY           SKY/WX    TMP DP  RH WIND       PRES   REMARKS
LEWISTON       MOCLDY    34  30  85 E5        30.29F WCI  30
LOWELL           N/A     30  27  88 CALM      30.35R
COEUR D`ALENE  CLOUDY    30  27  86 NE5       30.27F WCI  25
MULLAN PASS    CLOUDY    22  17  81 CALM      30.14R
$$


USA.gov is the U.S. government's official web portal to all federal, state and local government web resources and services.